• In Czech Republic
  • List of Countries
  • For 7 days
  • Water Temperature
  • Satellite Maps
  • Weather Map
  • Weather Widgets
  • user-avatar
    Login

    Hourly Weather La Massana

    Today, 27 July, Thursday

    Time Temperature Precipitation Wind Pressure Humidity
    00:00 +9°C° 0 mm 2 mps 612 mmHg 77%
    01:00 +9°C° 0 mm 2 mps 612 mmHg 75%
    02:00 +10°C° 0 mm 1 mps 612 mmHg 74%
    03:00 +10°C° 0 mm 1 mps 612 mmHg 72%
    04:00 +10°C° 0 mm 1 mps 612 mmHg 69%
    05:00 +11°C° 0 mm 1 mps 612 mmHg 67%
    06:00 +12°C° 0 mm 1 mps 613 mmHg 64%
    07:00 +14°C° 0 mm 1 mps 614 mmHg 56%
    08:00 +18°C° 0 mm 1 mps 615 mmHg 48%
    09:00 +21°C° 0 mm 1 mps 616 mmHg 40%
    10:00 +22°C° 0 mm 1 mps 616 mmHg 38%
    11:00 +23°C° 0 mm 2 mps 617 mmHg 36%
    12:00 +24°C° 0 mm 2 mps 617 mmHg 33%
    13:00 +24°C° 0 mm 2 mps 617 mmHg 34%
    14:00 +24°C° 0 mm 3 mps 616 mmHg 35%
    15:00 +24°C° 0 mm 3 mps 616 mmHg 36%
    16:00 +23°C° 0 mm 2 mps 616 mmHg 40%
    17:00 +21°C° 0 mm 2 mps 615 mmHg 44%
    18:00 +20°C° 0 mm 2 mps 615 mmHg 49%
    19:00 +17°C° 0 mm 2 mps 614 mmHg 59%
    20:00 +15°C° 0 mm 2 mps 614 mmHg 69%
    21:00 +13°C° 0 mm 1 mps 613 mmHg 79%
    22:00 +12°C° 0 mm 1 mps 613 mmHg 80%
    23:00 +12°C° 0 mm 1 mps 613 mmHg 82%

    Tomorrow, 28 July, Friday

    Time Temperature Precipitation Wind Pressure Humidity
    00:00 +11°C° 0 mm 1 mps 613 mmHg 83%
    01:00 +11°C° 0 mm 1 mps 613 mmHg 83%
    02:00 +11°C° 0 mm 1 mps 613 mmHg 83%
    03:00 +11°C° 0 mm 1 mps 613 mmHg 83%
    04:00 +12°C° 0 mm 1 mps 613 mmHg 81%
    05:00 +12°C° 0 mm 1 mps 614 mmHg 78%
    06:00 +13°C° 0 mm 1 mps 614 mmHg 76%
    07:00 +15°C° 0 mm 1 mps 615 mmHg 70%
    08:00 +17°C° 0 mm 2 mps 616 mmHg 64%
    09:00 +19°C° 0 mm 2 mps 617 mmHg 58%
    10:00 +20°C° 0 mm 3 mps 617 mmHg 56%
    11:00 +20°C° 0 mm 3 mps 618 mmHg 54%
    12:00 +21°C° 0 mm 3 mps 618 mmHg 52%
    13:00 +21°C° 0.1 mm 3 mps 618 mmHg 52%
    14:00 +21°C° 0.1 mm 3 mps 617 mmHg 51%
    15:00 +22°C° 0.1 mm 3 mps 617 mmHg 51%
    16:00 +21°C° 0.1 mm 3 mps 617 mmHg 55%
    17:00 +20°C° 0.1 mm 2 mps 617 mmHg 59%
    18:00 +19°C° 0.1 mm 2 mps 616 mmHg 63%
    19:00 +18°C° 0.1 mm 1 mps 616 mmHg 71%
    20:00 +15°C° 0.1 mm 1 mps 615 mmHg 79%
    21:00 +12°C° 0.1 mm 0 mps 615 mmHg 87%
    22:00 +13°C° 0.1 mm 1 mps 615 mmHg 87%
    23:00 +13°C° 0.1 mm 1 mps 615 mmHg 88%

    Day after tomorrow, 29 July, Saturday

    Time Temperature Precipitation Wind Pressure Humidity
    00:00 +12°C° 0.1 mm 1 mps 615 mmHg 88%
    01:00 +12°C° 0.1 mm 1 mps 614 mmHg 88%
    02:00 +12°C° 0.1 mm 1 mps 614 mmHg 87%
    03:00 +12°C° 0.1 mm 1 mps 614 mmHg 87%
    04:00 +13°C° 0 mm 1 mps 614 mmHg 83%
    05:00 +13°C° 0 mm 1 mps 614 mmHg 80%
    06:00 +14°C° 0 mm 1 mps 615 mmHg 77%
    07:00 +16°C° 0 mm 1 mps 616 mmHg 67%
    08:00 +19°C° 0 mm 2 mps 617 mmHg 56%
    09:00 +23°C° 0 mm 2 mps 618 mmHg 46%
    10:00 +24°C° 0 mm 3 mps 618 mmHg 41%
    11:00 +25°C° 0 mm 3 mps 618 mmHg 37%
    12:00 +26°C° 0 mm 4 mps 618 mmHg 32%
    13:00 +26°C° 0 mm 4 mps 618 mmHg 32%
    14:00 +26°C° 0 mm 4 mps 618 mmHg 32%
    15:00 +26°C° 0 mm 4 mps 618 mmHg 32%
    16:00 +25°C° 0 mm 4 mps 617 mmHg 38%
    17:00 +24°C° 0 mm 3 mps 616 mmHg 43%
    18:00 +21°C° 0 mm 3 mps 616 mmHg 49%
    19:00 +19°C° 0.1 mm 2 mps 615 mmHg 57%
    20:00 +18°C° 0.1 mm 1 mps 615 mmHg 64%
    21:00 +14°C° 0.1 mm 1 mps 614 mmHg 72%
    22:00 +14°C° 0.1 mm 1 mps 614 mmHg 72%
    23:00 +14°C° 0.1 mm 1 mps 614 mmHg 72%

    30 July, Sunday

    Time Temperature Precipitation Wind Pressure Humidity
    00:00 +13°C° 0.1 mm 1 mps 614 mmHg 72%
    01:00 +13°C° 0 mm 1 mps 614 mmHg 71%
    02:00 +12°C° 0 mm 1 mps 613 mmHg 70%
    03:00 +12°C° 0 mm 1 mps 613 mmHg 70%
    04:00 +13°C° 0 mm 1 mps 613 mmHg 68%
    05:00 +13°C° 0 mm 1 mps 614 mmHg 67%
    06:00 +14°C° 0 mm 1 mps 614 mmHg 65%
    07:00 +16°C° 0 mm 1 mps 615 mmHg 59%
    08:00 +18°C° 0 mm 2 mps 616 mmHg 52%
    09:00 +20°C° 0 mm 3 mps 617 mmHg 46%
    10:00 +21°C° 0 mm 3 mps 617 mmHg 43%
    11:00 +22°C° 0 mm 4 mps 617 mmHg 40%
    12:00 +25°C° 0 mm 4 mps 617 mmHg 38%
    13:00 +25°C° 0 mm 4 mps 617 mmHg 38%
    14:00 +25°C° 0 mm 4 mps 617 mmHg 38%
    15:00 +25°C° 0 mm 4 mps 617 mmHg 38%
    16:00 +23°C° 0 mm 4 mps 616 mmHg 43%
    17:00 +22°C° 0 mm 3 mps 615 mmHg 49%
    18:00 +20°C° 0 mm 2 mps 615 mmHg 54%
    19:00 +18°C° 0 mm 2 mps 614 mmHg 62%
    20:00 +16°C° 0 mm 1 mps 614 mmHg 69%
    21:00 +14°C° 0 mm 1 mps 613 mmHg 77%
    22:00 +14°C° 0 mm 1 mps 613 mmHg 78%
    23:00 +13°C° 0 mm 1 mps 613 mmHg 79%

    31 July, Monday

    Time Temperature Precipitation Wind Pressure Humidity
    00:00 +13°C° 0 mm 1 mps 613 mmHg 80%
    01:00 +13°C° 0 mm 1 mps 612 mmHg 79%
    02:00 +13°C° 0 mm 1 mps 612 mmHg 78%
    03:00 +12°C° 0 mm 1 mps 612 mmHg 77%
    04:00 +13°C° 0 mm 1 mps 612 mmHg 72%
    05:00 +13°C° 0 mm 1 mps 612 mmHg 68%
    06:00 +14°C° 0 mm 2 mps 612 mmHg 64%
    07:00 +16°C° 0 mm 2 mps 613 mmHg 57%
    08:00 +19°C° 0 mm 3 mps 614 mmHg 50%
    09:00 +21°C° 0 mm 3 mps 615 mmHg 43%
    10:00 +22°C° 0 mm 4 mps 615 mmHg 40%
    11:00 +25°C° 0 mm 4 mps 616 mmHg 37%
    12:00 +26°C° 0 mm 5 mps 616 mmHg 34%
    13:00 +25°C° 0 mm 5 mps 615 mmHg 35%
    14:00 +25°C° 0 mm 5 mps 615 mmHg 36%
    15:00 +25°C° 0 mm 5 mps 615 mmHg 36%
    16:00 +23°C° 0.1 mm 4 mps 614 mmHg 41%
    17:00 +22°C° 0.1 mm 4 mps 613 mmHg 46%
    18:00 +20°C° 0.1 mm 3 mps 613 mmHg 51%
    19:00 +18°C° 0.1 mm 2 mps 612 mmHg 57%
    20:00 +16°C° 0.1 mm 2 mps 612 mmHg 63%
    21:00 +14°C° 0.1 mm 2 mps 611 mmHg 68%
    22:00 +14°C° 0 mm 1 mps 611 mmHg 66%
    23:00 +13°C° 0 mm 1 mps 611 mmHg 64%

    1 August, Tuesday

    Time Temperature Precipitation Wind Pressure Humidity
    00:00 +13°C° 0 mm 1 mps 611 mmHg 62%
    01:00 +13°C° 0 mm 1 mps 611 mmHg 62%
    02:00 +12°C° 0 mm 1 mps 611 mmHg 62%
    03:00 +12°C° 0 mm 1 mps 610 mmHg 61%
    04:00 +12°C° 0 mm 1 mps 611 mmHg 63%
    05:00 +13°C° 0 mm 1 mps 611 mmHg 65%
    06:00 +13°C° 0 mm 1 mps 611 mmHg 66%
    07:00 +14°C° 0 mm 1 mps 612 mmHg 64%
    08:00 +15°C° 0 mm 1 mps 613 mmHg 62%
    09:00 +17°C° 0 mm 2 mps 614 mmHg 60%
    10:00 +17°C° 0.1 mm 2 mps 614 mmHg 59%
    11:00 +18°C° 0.1 mm 2 mps 615 mmHg 57%
    12:00 +19°C° 0.1 mm 2 mps 615 mmHg 55%
    13:00 +19°C° 0.1 mm 2 mps 615 mmHg 53%
    14:00 +19°C° 0.1 mm 2 mps 615 mmHg 51%
    15:00 +20°C° 0.1 mm 2 mps 616 mmHg 49%
    16:00 +19°C° 0 mm 2 mps 616 mmHg 52%
    17:00 +18°C° 0 mm 2 mps 615 mmHg 56%
    18:00 +17°C° 0 mm 2 mps 615 mmHg 59%
    19:00 +15°C° 0 mm 2 mps 615 mmHg 68%
    20:00 +13°C° 0 mm 2 mps 615 mmHg 77%
    21:00 +12°C° 0 mm 1 mps 615 mmHg 86%
    22:00 +11°C° 0 mm 1 mps 614 mmHg 87%
    23:00 +11°C° 0 mm 1 mps 614 mmHg 88%
    Show more